Weather Roundup
Issued by NWS

Home | Current Version | Previous Version | Text Only | Print | Product List | Glossary On
Versions: 1 2 3 4 5 6 7 8 9 10 11 12 13 14 15 16 17 18 19 20 21 22 23 24 25 26 27 28 29 30 31 32 33 34 35 36 37 38 39 40 41 42 43 44 45 46 47 48 49 50
000
NZUS93 KARX 301959
HRRWXR

CURRENT HOURLY OBSERVATIONS ACROSS
MUCH OF THE UPPER MISSISSIPPI VALLEY
NATIONAL WEATHER SERVICE LA CROSSE WI
300 PM CDT SAT AUG 30 2014


...SOUTHEAST MINNESOTA...


CITY           SKY/WX    TMP DP  RH WIND       PRES   REMARKS
ROCHESTER      MOSUNNY   76  64  66 N8        29.88S
ROCHESTER/MAYO CLOUDY    74  60  61 NW8       29.87S
WINONA         CLOUDY    73  64  73 W7        29.85S
AUSTIN         PTSUNNY   73  66  78 W9G17     29.87R
ALBERT LEA     MOSUNNY   73  66  78 W9        29.88R
DODGE CENTER   MOSUNNY   75  64  69 N6        29.87S
PRESTON        SUNNY     75  68  79 NW3       29.87S
OWATONNA       MOSUNNY   75  66  73 W10       29.87S
FARIBAULT      LGT RAIN  79  63  57 W7        29.87S
$$

...ELSEWHERE IN MINNESOTA...


CITY           SKY/WX    TMP DP  RH WIND       PRES   REMARKS
MINNEAPOLIS    PTSUNNY   75  62  64 NE8       29.86S
INTNL FALLS    SUNNY     69  51  52 VRB3      29.89F
DULUTH         CLOUDY    64  59  83 E9        29.88S
RED WING       CLOUDY    73  63  68 N7        29.85S
REDWOOD FALLS  CLOUDY    69  63  81 W9        29.89S
MANKATO        PTSUNNY   73  63  68 W9        29.87F
WORTHINGTON    CLOUDY    72  63  73 NW8       29.92S
FAIRMONT       PTSUNNY   70  61  73 N5        29.89F
$$

...SOUTHWEST WISCONSIN...


CITY           SKY/WX    TMP DP  RH WIND       PRES   REMARKS
LA CROSSE      CLOUDY    76  66  71 NW10      29.83S
PRAIRIE DU CHI MOSUNNY   80  62  52 W8        29.83S
BOSCOBEL       MOSUNNY   81  67  62 VRB7      29.83S
LONE ROCK      NOT AVBL
PLATTEVILLE    PTSUNNY   79  69  71 SW10G18   29.86F
FORT MC COY    MOSUNNY   75  64  69 W6        29.83R
VIROQUA        CLOUDY    76  69  79 NW9       29.85S
WIS DELLS      PTSUNNY   74  66  75 NW6       29.82S
$$

...ELSEWHERE IN WISCONSIN...


CITY           SKY/WX    TMP DP  RH WIND       PRES   REMARKS
MILWAUKEE      PTSUNNY   76  66  71 SW20G26   29.80S
MADISON        LGT RAIN  77  68  73 NW9G18    29.81R
GREEN BAY      CLOUDY    75  67  76 W9        29.75S
EAU CLAIRE     CLOUDY    70  64  81 N6        29.84R
BLACK RVR FLS  CLOUDY    76  65  69 W10G17    29.81S
MEDFORD        CLOUDY    66  62  86 NW10      29.83R
WAUSAU         CLOUDY    73  64  73 NW9       29.78S
WIS RAPIDS     CLOUDY    75  67  76 W8        29.81S
MARSHFIELD     CLOUDY    72  64  76 NW13G24   29.81R
RICE LAKE      CLOUDY    65  59  80 N6        29.88S
$$

...NORTHEAST IOWA...


CITY           SKY/WX    TMP DP  RH WIND       PRES   REMARKS
WATERLOO       MOSUNNY   78  65  63 W10       29.86F
DUBUQUE        MOSUNNY   78  66  66 W15       29.87S
DECORAH        PTSUNNY   77  66  69 W9        29.85F
MASON CITY     MOSUNNY   77  65  66 W8        29.89F
CHARLES CITY   MOSUNNY   79  66  65 W6        29.88S
OELWEIN        SUNNY     79  66  65 W9        29.88S
$$

...ELSEWHERE IN IOWA...


CITY           SKY/WX    TMP DP  RH WIND       PRES   REMARKS
DES MOINES     MOSUNNY   83  68  60 W9        29.88F
IOWA CITY      MOSUNNY   78  68  71 W10       29.89F
FORT DODGE     PTSUNNY   73  64  73 CALM      29.91F
MARSHALLTOWN   MOSUNNY   78  67  68 NW7       29.88F
CEDAR RAPIDS   MOSUNNY   78  68  71 SW10      29.88F
$$

...NORTHERN ILLINOIS...


CITY           SKY/WX    TMP DP  RH WIND       PRES   REMARKS
CHICAGO-OHARE  PTSUNNY   81  64  56 W20G31    29.84F
DUPAGE         MOSUNNY   82  67  60 SW18G26   29.85F
CHICAGO-MIDWAY PTSUNNY   86  68  54 W17G29    29.84F
MOLINE         PTSUNNY   80  67  64 W9        29.87F
ROCKFORD       PTSUNNY   80  67  64 W17G23    29.86S
STERLING       PTSUNNY   81  68  65 W10       29.87F
PEORIA         MOSUNNY   85  70  60 W9        29.88F
$$

NOTE: "FAIR" INDICATES FEW OR NO CLOUDS BELOW 12,000 FEET WITH NO
SIGNIFICANT WEATHER AND/OR OBSTRUCTIONS TO VISIBILITY. WIND
SPEEDS ARE IN MILES-PER-HOUR.



USA.gov is the U.S. government's official web portal to all federal, state and local government web resources and services.